This is the latest recevied weather packets stored in our database for station/object KB1YTR-1. If no packets are shown the sender has not sent any weather packets the latest 10 day(s).
| Time | Temp. | Humidity | Pressure | Rain* | Wind** | Luminosity | Snow |
|---|---|---|---|---|---|---|---|
| 1777714112 | 2.22° C | 59% | 1016.6 hPa | 0 mm | - | - | - |
| 1777713222 | 2.22° C | 59% | 1016.7 hPa | 0 mm | - | - | - |
| 1777712397 | 2.22° C | 59% | 1016.5 hPa | 0 mm | - | - | - |
| 1777711512 | 1.67° C | 62% | 1016.6 hPa | 0 mm | - | - | - |
| 1777710777 | 1.67° C | 62% | 1016.5 hPa | 0 mm | - | - | - |
| 1777710042 | 2.22° C | 59% | 1016.6 hPa | 0 mm | - | - | - |
| 1777709182 | 1.67° C | 60% | 1017 hPa | 0 mm | - | - | - |
| 1777708463 | 2.22° C | 59% | 1016.7 hPa | 0 mm | - | - | - |
| 1777707637 | 1.67° C | 60% | 1017.2 hPa | 0 mm | - | - | - |
| 1777706765 | 1.67° C | 61% | 1017.1 hPa | 0 mm | - | - | - |
| 1777706047 | 1.67° C | 60% | 1017.5 hPa | 0 mm | - | - | - |
| 1777705297 | 1.67° C | 60% | 1017.5 hPa | 0 mm | - | - | - |
| 1777704482 | 2.22° C | 59% | 1017.6 hPa | 0 mm | - | - | - |
| 1777703684 | 1.67° C | 59% | 1017.6 hPa | 0 mm | - | - | - |
| 1777702954 | 2.22° C | 58% | 1017.4 hPa | 0 mm | - | - | - |
| 1777702147 | 1.67° C | 59% | 1017.5 hPa | 0 mm | - | - | - |
| 1777701362 | 1.67° C | 59% | 1017.7 hPa | 0 mm | - | - | - |
| 1777700625 | 1.67° C | 58% | 1017.5 hPa | 0 mm | - | - | - |
| 1777699832 | 1.67° C | 58% | 1017.8 hPa | 0 mm | - | - | - |
| 1777698972 | 1.11° C | 59% | 1017.8 hPa | 0 mm | - | - | - |
| 1777698223 | 1.67° C | 58% | 1017.7 hPa | 0 mm | - | - | - |
| 1777697462 | 1.11° C | 59% | 1017.6 hPa | 0 mm | - | - | - |
| 1777696576 | 1.67° C | 57% | 1017.7 hPa | 0 mm | - | - | - |
| 1777695832 | 1.67° C | 58% | 1017.6 hPa | 0 mm | - | - | - |
| 1777695045 | 1.67° C | 58% | 1017.6 hPa | 0 mm | - | - | - |
* Rain latest hour (hover to see other rain measurements)
** Current wind speed in m/s (hover to see current wind gust speed)